TimeEST,TemperatureF,Dew PointF,Humidity,Sea Level PressureIn,VisibilityMPH,Wind Direction,Wind SpeedMPH,Gust SpeedMPH,PrecipitationIn,Events,Conditions,WindDirDegrees,DateUTC
12:15 AM,35.6,35.6,100,30.20,10.0,Calm,Calm,-,N/A,,Overcast,0,2012-12-10 05:15:00
12:35 AM,33.8,33.8,100,30.18,9.0,North,4.6,-,0.03,,Overcast,360,2012-12-10 05:35:00
12:55 AM,33.8,33.8,100,30.17,5.0,NNE,6.9,-,0.07,,Overcast,20,2012-12-10 05:55:00
1:15 AM,33.8,33.8,100,30.16,10.0,NE,3.5,-,N/A,,Mostly Cloudy,40,2012-12-10 06:15:00
1:35 AM,33.8,33.8,100,30.14,9.0,North,4.6,-,N/A,,Overcast,360,2012-12-10 06:35:00
2:15 AM,33.8,-9999,N/A,30.12,5.0,North,3.5,-,N/A,,Overcast,360,2012-12-10 07:15:00
2:35 AM,33.8,-9999,N/A,30.10,6.0,NNW,3.5,-,N/A,,Overcast,340,2012-12-10 07:35:00
3:15 AM,35.6,-9999,N/A,30.07,5.0,North,6.9,-,N/A,,Overcast,10,2012-12-10 08:15:00
3:55 AM,35.6,-9999,N/A,30.03,3.0,NNW,3.5,-,N/A,,Overcast,330,2012-12-10 08:55:00
4:15 AM,35.6,-9999,N/A,30.01,2.5,North,5.8,-,N/A,,Overcast,10,2012-12-10 09:15:00
4:35 AM,35.6,-9999,N/A,30.01,2.5,North,4.6,-,N/A,,Overcast,360,2012-12-10 09:35:00
4:55 AM,35.6,-9999,N/A,30.00,3.0,Calm,Calm,-,0.08,,Overcast,0,2012-12-10 09:55:00
5:15 AM,37.4,-9999,N/A,29.98,2.5,East,6.9,-,0.02,,Overcast,80,2012-12-10 10:15:00
5:35 AM,42.8,-9999,N/A,29.97,4.0,ENE,8.1,-,0.04,,Overcast,70,2012-12-10 10:35:00
5:55 AM,42.8,-9999,N/A,29.95,5.0,ENE,8.1,-,0.06,,Overcast,70,2012-12-10 10:55:00
6:35 AM,35.6,-9999,N/A,29.92,2.5,North,8.1,-,0.05,,Overcast,360,2012-12-10 11:35:00
6:55 AM,35.6,-9999,N/A,29.90,4.0,NNE,9.2,-,0.06,,Overcast,20,2012-12-10 11:55:00
7:15 AM,35.6,-9999,N/A,29.88,5.0,North,8.1,-,0.02,,Overcast,360,2012-12-10 12:15:00
7:35 AM,35.6,-9999,N/A,29.86,4.0,North,9.2,-,0.03,,Overcast,360,2012-12-10 12:35:00
7:55 AM,35.6,-9999,N/A,29.85,2.5,North,6.9,-,0.06,,Overcast,360,2012-12-10 12:55:00
8:15 AM,35.6,-9999,N/A,29.84,5.0,North,6.9,-,0.01,,Overcast,360,2012-12-10 13:15:00
8:35 AM,35.6,-9999,N/A,29.83,3.0,North,6.9,-,0.01,,Overcast,360,2012-12-10 13:35:00
8:55 AM,35.6,35.6,100,29.82,2.0,North,8.1,-,0.01,,Overcast,360,2012-12-10 13:55:00
9:35 AM,35.6,-9999,N/A,29.79,3.0,North,9.2,-,N/A,,Overcast,360,2012-12-10 14:35:00
9:55 AM,35.6,-9999,N/A,29.79,5.0,North,10.4,-,N/A,,Overcast,360,2012-12-10 14:55:00
10:15 AM,35.6,-9999,N/A,29.78,3.0,North,6.9,-,N/A,,Overcast,360,2012-12-10 15:15:00
10:35 AM,35.6,-9999,N/A,29.77,2.5,North,4.6,-,N/A,,Overcast,360,2012-12-10 15:35:00
10:55 AM,35.6,-9999,N/A,29.75,1.8,North,8.1,-,N/A,,Overcast,360,2012-12-10 15:55:00
11:15 AM,35.6,-9999,N/A,29.75,1.8,North,8.1,-,N/A,,Overcast,360,2012-12-10 16:15:00
11:35 AM,35.6,-9999,N/A,29.73,1.5,North,3.5,-,N/A,,Overcast,360,2012-12-10 16:35:00
11:55 AM,35.6,35.6,100,29.72,1.5,NNW,5.8,-,N/A,,Overcast,340,2012-12-10 16:55:00
12:15 PM,35.6,35.6,100,29.70,1.5,NNW,6.9,-,N/A,,Overcast,340,2012-12-10 17:15:00
12:35 PM,35.6,35.6,100,29.68,1.5,North,5.8,-,N/A,,Overcast,360,2012-12-10 17:35:00
12:55 PM,35.6,35.6,100,29.68,1.5,North,5.8,-,N/A,,Overcast,360,2012-12-10 17:55:00
1:15 PM,35.6,35.6,100,29.67,1.2,NNW,4.6,-,N/A,,Overcast,340,2012-12-10 18:15:00
1:35 PM,35.6,35.6,100,29.66,1.2,North,4.6,-,N/A,,Overcast,360,2012-12-10 18:35:00
1:55 PM,35.6,35.6,100,29.65,1.0,NNE,6.9,-,N/A,,Overcast,20,2012-12-10 18:55:00
2:15 PM,35.6,35.6,100,29.65,1.0,NNW,6.9,-,N/A,,Overcast,340,2012-12-10 19:15:00
2:35 PM,35.6,35.6,100,29.64,1.0,North,5.8,-,N/A,,Overcast,10,2012-12-10 19:35:00
2:55 PM,35.6,35.6,100,29.63,1.2,North,3.5,-,N/A,,Overcast,10,2012-12-10 19:55:00
3:15 PM,35.6,35.6,100,29.63,1.8,North,5.8,-,N/A,,Overcast,360,2012-12-10 20:15:00
3:35 PM,35.6,35.6,100,29.62,4.0,NE,3.5,-,N/A,,Overcast,40,2012-12-10 20:35:00
3:55 PM,35.6,35.6,100,29.60,4.0,ENE,3.5,-,N/A,,Overcast,60,2012-12-10 20:55:00
4:15 PM,35.6,35.6,100,29.60,4.0,NE,3.5,-,N/A,,Overcast,40,2012-12-10 21:15:00
4:35 PM,35.6,-9999,N/A,29.59,4.0,NNE,3.5,-,N/A,,Overcast,30,2012-12-10 21:35:00
4:55 PM,35.6,-9999,N/A,29.59,3.0,North,3.5,-,N/A,,Overcast,10,2012-12-10 21:55:00
5:15 PM,35.6,-9999,N/A,29.59,1.5,North,4.6,-,N/A,,Overcast,360,2012-12-10 22:15:00
5:35 PM,35.6,35.6,100,29.58,1.5,North,6.9,-,N/A,,Overcast,10,2012-12-10 22:35:00
5:55 PM,35.6,35.6,100,29.56,1.8,NNE,5.8,-,0.01,,Overcast,20,2012-12-10 22:55:00
6:15 PM,35.6,35.6,100,29.56,3.0,North,4.6,-,0.01,,Overcast,10,2012-12-10 23:15:00
6:35 PM,35.6,35.6,100,29.55,3.0,North,3.5,-,0.01,,Overcast,10,2012-12-10 23:35:00
7:15 PM,35.6,35.6,100,29.53,3.0,NNE,3.5,-,N/A,,Overcast,20,2012-12-11 00:15:00
7:35 PM,35.6,35.6,100,29.52,5.0,North,4.6,-,N/A,,Overcast,10,2012-12-11 00:35:00
7:55 PM,35.6,-9999,N/A,29.51,4.0,NNE,3.5,-,N/A,,Overcast,30,2012-12-11 00:55:00
8:15 PM,35.6,35.6,100,29.49,3.0,Calm,Calm,-,N/A,,Overcast,0,2012-12-11 01:15:00
8:35 PM,35.6,35.6,100,29.49,1.5,Calm,Calm,-,N/A,,Overcast,0,2012-12-11 01:35:00
8:55 PM,35.6,35.6,100,29.49,0.8,Calm,Calm,-,N/A,,Overcast,0,2012-12-11 01:55:00
9:15 PM,35.6,35.6,100,29.49,0.5,Calm,Calm,-,N/A,,Overcast,0,2012-12-11 02:15:00
9:35 PM,35.6,35.6,100,29.48,0.5,Calm,Calm,-,N/A,,Overcast,0,2012-12-11 02:35:00
9:55 PM,35.6,35.6,100,29.49,0.5,Calm,Calm,-,N/A,,Overcast,0,2012-12-11 02:55:00
10:15 PM,35.6,35.6,100,29.48,0.8,Calm,Calm,-,N/A,,Overcast,0,2012-12-11 03:15:00
10:35 PM,35.6,35.6,100,29.47,1.0,Calm,Calm,-,N/A,,Overcast,0,2012-12-11 03:35:00
10:55 PM,35.6,35.6,100,29.48,1.0,Calm,Calm,-,N/A,,Overcast,0,2012-12-11 03:55:00
11:15 PM,35.6,35.6,100,29.49,0.8,NE,3.5,-,N/A,,Overcast,40,2012-12-11 04:15:00
11:35 PM,37.4,37.4,100,29.51,3.0,Calm,Calm,-,N/A,,Overcast,0,2012-12-11 04:35:00
11:55 PM,39.2,39.2,100,29.52,2.5,Calm,Calm,-,N/A,,Overcast,0,2012-12-11 04:55:00